Flag for Australia Weather past 2 weeks in Mosman, New South Wales, Australia

Now
47 °F

Cool.


Feels Like: N/A
Forecast: 44 / 55 °F
Wind: N/A

Location: Sydney Regional Office

Current Time: Jul 7, 2015 at 6:23:04 AM

Latest Report: Jul 7, 2015 at 5:00 AM


Visibility: N/A

Pressure: 30.03 "Hg

Humidity: 66%

Dew point: 36 °F

Location of MosmanLocation

Historic Weather in Mosman — Graph

°F

Mosman temperature yesterday

Maximum temperature yesterday: 63 °F (at 3:00 PM)
Minimum temperature yesterday: 44 °F (at 5:00 AM)
Average temperature yesterday: 51 °F

Past Weeks' High & Low Weather Summary

 TemperatureHumidityPressure
High70 °F (Jun 24, 2:00 PM)99% (Jun 22, 6:00 AM)30.52 "Hg (Jun 22, 6:00 AM)
Low43 °F (Jul 4, 6:00 AM)29% (Jul 4, 2:00 PM)29.91 "Hg (Jul 6, 2:00 PM)
Average54 °F70%30.27 "Hg
* Reported Jun 22 5:00 AM — Jul 7 5:00 AM, Mosman, Weather by CustomWeather, © 2015

Note: Actual official high and low records may vary slightly from our data, if they occured in-between our weather recording intervals... More about our weather records

Advertising

Mosman weather history for previous 24 hours

 ConditionsComfort  
Time TempWeatherWind HumidityBarometerVisibility
5:00 AM
Tue, Jul 7
47 °FCool.N/A66%30.03 "HgN/A
3:00 AM47 °FCool.N/A64%30.02 "HgN/A
2:00 AM47 °FCool.N/A65%30.02 "HgN/A
12:00 AM48 °FCool.N/A62%30.02 "HgN/A
11:00 PM
Mon, Jul 6
49 °FCool.N/A59%30.03 "HgN/A
9:00 PM51 °FCool.N/A54%30.01 "HgN/A
8:00 PM53 °FCool.N/A47%30.01 "HgN/A
6:00 PM55 °FCool.N/A44%29.98 "HgN/A
5:00 PM57 °FRefreshingly cool.N/A41%29.95 "HgN/A
3:00 PM63 °FMild.N/A34%29.92 "HgN/A
2:00 PM62 °FRefreshingly cool.N/A35%29.91 "HgN/A
12:00 PM56 °FRefreshingly cool.N/A41%29.96 "HgN/A
11:00 AM53 °FCool.N/A47%29.99 "HgN/A
9:00 AM47 °FCool.N/A58%30.01 "HgN/A
8:00 AM45 °FQuite cool.N/A62%30.01 "HgN/A
6:00 AM45 °FQuite cool.N/A63%30.00 "HgN/A
Weather by CustomWeather, © 2015

See weather overviewHow to use our weather pages